Terug naar catalogus

STARLINK-33960

ActiefCommunicatieVLEO
NORAD 63966·PAYLOAD·🇺🇸 United States

Gelanceerd May 13, 2025 vanaf Cape Canaveral Space Force Station

Loading…

Volgende Passages (komende 24 uur)

TLE

VersSource: CelesTrak SupGP

Epoch: Sep 14, 2026, 20:48 UTC

1 63966C 25099Q   26257.86715278  .00012750  00000+0  46177-3 0  2570
2 63966  43.0004 187.6063 0001353 264.9831   9.8597 15.27574816    14

Volg STARLINK-33960 in realtime met AllMySat

Download on the App Store